Theta_e
321 321 323 321 322 322 322 321 320 320 318 317 315 315 314 313 314 313 312 316 319 318 319 321 320 322 320 322 322 321 317 319 313 318 323 325 324 324 324 321 319 321 323
320 320 321 320 322 320 321 321 320 320 321 321 319 318 317 316 314 313 312 313 316 317 319 318 318 319 318 317 317 316 316 317 314 312 316 317 317 319 322 324 324 324 325
319 320 320 319 322 322 323 324 325 323 321 321 320 319 318 317 315 314 314 312 313 316 319 320 319 318 317 317 316 315 316 320 319 318 318 321 323 325 325 326 326 328 327
319 319 320 321 320 321 322 322 323 324 323 323 323 322 321 320 320 318 315 316 315 317 318 318 318 318 317 317 317 318 317 317 318 315 314 316 319 324 324 322 322 326 323
321 318 319 320 321 321 321 320 320 320 321 324 323 323 323 322 321 321 320 319 318 321 322 321 322 316 309 314 322 321 321 321 320 320 318 317 318 319 318 319 316 318 320
318 317 320 321 321 322 321 322 321 319 319 319 319 322 323 320 291 294 312 323 322 321 320 322 322 310 310 301 301 302 310 320 317 316 314 312 312 314 315 313 313 311 310
302 302 304 307 307 308 315 318 319 320 322 319 318 319 303 297 289 291 290 316 320 319 318 318 317 317 307 316 303 297 297 290 291 302 306 307 300 292 293 297 296 293 291
294 295 297 298 298 300 301 302 299 299 297 297 296 294 292 290 289 289 289 306 313 295 292 293 296 296 291 293 298 294 288 287 288 288 287 285 284 285 287 291 292 290 287
289 290 291 293 294 294 293 293 293 291 289 289 289 289 289 287 288 289 295 298 291 288 287 287 288 288 287 289 294 289 285 284 285 285 285 284 284 284 286 291 287 288 289
287 288 289 290 290 290 289 289 288 288 286 286 285 286 286 285 287 288 293 290 285 284 284 284 285 285 285 287 293 288 284 283 282 283 282 283 284 283 283 284 288 285 285
286 287 288 289 288 288 288 288 287 286 285 284 283 284 284 285 285 286 287 286 284 282 282 282 283 284 284 284 284 284 282 282 282 282 282 282 283 283 283 284 284 286 285
285 286 287 288 288 289 288 288 287 286 285 284 284 283 284 284 284 284 285 285 286 284 283 283 283 283 283 283 283 282 282 284 284 284 283 283 283 283 283 283 282 283 283
284 284 286 287 287 287 287 287 287 287 286 285 285 285 285 285 285 282 282 282 283 283 283 282 282 282 282 282 282 283 284 286 285 283 282 282 282 282 284 284 284 284 282
282 284 284 283 283 285 285 284 285 285 285 285 284 283 283 284 284 285 285 284 283 283 282 284 282 282 282 282 283 284 283 282 282 282 281 282 283 282 281 282 281 283 282
283 282 282 283 282 281 281 282 282 282 283 282 282 283 282 281 281 281 283 283 283 283 284 285 283 283 282 282 281 281 281 282 281 281 281 281 280 280 279 280 280 280 279
281 281 281 281 281 281 279 277 279 280 280 280 281 281 281 280 280 280 279 280 280 282 283 281 280 280 280 279 279 279 278 277 278 278 279 278 277 277 277 278 278 278 277
280 281 280 281 281 281 281 281 278 277 276 277 278 278 278 278 278 278 278 278 280 281 280 278 278 278 278 277 277 277 276 275 276 276 276 276 276 276 276 276 276 276 276
279 279 280 280 280 280 279 279 279 278 277 276 274 275 275 276 276 276 278 280 279 278 278 277 276 276 276 275 275 274 274 275 274 274 274 274 275 275 274 274 274 273 274
280 279 279 278 278 279 279 278 278 278 277 276 277 275 274 274 274 275 276 277 276 275 275 274 275 275 274 274 274 273 272 272 272 272 273 272 273 273 272 272 273 270 270
278 277 278 279 278 278 278 277 277 276 276 274 272 272 276 276 274 273 274 274 274 273 273 273 273 273 273 273 272 272 272 271 271 271 271 271 271 272 271 271 271 271 271
279 278 277 278 277 277 277 276 275 274 273 272 270 269 269 273 272 272 271 271 271 271 271 272 272 271 272 271 271 271 269 270 269 269 269 269 269 269 270 271 271 270 270
277 277 277 276 276 275 275 274 274 273 272 272 271 269 269 272 271 271 270 270 270 271 271 271 270 270 269 269 269 269 268 267 267 267 267 267 268 269 269 269 269 269 269
276 276 275 274 274 273 274 273 273 273 272 271 271 270 270 270 269 269 268 269 269 269 268 269 269 268 268 268 268 268 267 266 266 265 264 266 267 268 267 268 268 267 268
274 274 273 273 272 273 273 272 271 269 270 270 270 270 269 269 268 267 267 267 267 268 267 267 267 265 266 266 268 268 267 265 265 265 263 264 265 265 265 266 267 266 266
273 272 272 272 271 271 271 271 270 270 270 270 269 269 269 269 268 267 267 266 265 266 265 265 265 265 264 263 263 263 262 261 261 260 264 264 264 263 264 264 265 265 266
271 270 270 271 270 270 270 269 269 269 268 268 268 268 268 267 267 266 266 265 264 265 263 266 264 262 262 265 264 262 260 260 261 259 260 263 263 264 264 264 264 264 265
Wind_Speed
13 12 12 9 8 7 6 7 6 9 12 13 14 13 12 12 11 11 12 12 11 10 10 11 13 11 7 5 5 4 3 7 8 11 11 10 11 12 14 11 13 15 15
13 12 11 10 9 8 8 9 7 8 10 11 12 12 12 12 12 13 14 13 11 10 15 10 13 7 10 7 5 5 6 10 7 15 15 11 12 14 17 18 16 16 16
11 13 11 10 10 10 9 9 10 12 11 10 9 10 12 12 12 11 12 12 14 14 13 12 11 11 11 9 9 11 12 13 12 13 15 14 14 14 15 17 17 17 16
11 14 12 11 10 9 8 9 10 9 10 12 13 12 11 11 12 13 14 15 16 18 14 12 13 13 13 13 12 15 13 12 11 9 10 13 14 16 14 14 14 13 13
14 11 10 10 9 9 8 8 8 9 9 10 12 11 12 12 11 14 15 14 14 17 18 19 18 14 15 16 12 14 15 13 12 13 12 13 13 13 13 11 11 11 13
8 6 8 10 9 11 11 11 10 8 8 7 6 6 8 4 11 10 10 14 15 15 12 13 15 15 16 16 16 18 16 14 13 10 9 12 14 12 11 11 12 12 12
13 12 11 11 10 10 6 3 2 5 9 6 5 7 10 9 14 12 11 7 8 8 9 8 7 4 4 6 10 14 13 9 2 8 12 10 6 5 4 4 1 2 1
13 13 11 11 11 9 10 10 10 10 11 9 11 12 11 9 12 9 5 3 4 12 11 9 8 7 8 6 3 7 9 10 8 7 9 7 6 5 4 4 4 3 3
14 14 13 12 11 11 11 11 10 11 11 11 11 12 11 12 17 12 3 9 12 12 12 14 10 9 12 7 2 8 9 10 15 21 19 16 19 19 13 1 3 1 1
14 13 13 12 13 12 12 11 11 11 12 10 13 12 15 12 20 18 10 8 11 8 9 10 19 14 16 12 3 8 10 7 7 7 10 10 15 14 19 10 5 3 2
14 12 11 13 15 12 11 11 10 11 12 12 12 12 13 14 16 22 17 10 8 9 8 8 8 18 20 22 19 11 9 8 10 8 8 7 7 9 8 9 10 8 5
15 14 15 17 11 9 12 10 11 10 11 10 10 9 9 13 19 22 22 18 14 10 10 8 11 21 22 22 16 19 15 9 6 6 7 7 7 8 8 9 10 10 9
15 17 17 17 14 13 12 11 9 10 8 8 8 8 9 8 10 21 22 21 19 13 10 13 16 17 18 17 21 17 10 6 6 7 7 6 6 5 3 3 4 5 7
14 16 16 15 14 13 11 10 10 9 9 8 8 9 9 9 8 7 7 8 11 11 12 10 10 11 14 11 10 11 9 9 8 7 6 5 5 5 5 5 4 4 3
14 13 13 11 15 14 15 12 12 15 13 9 9 9 9 10 11 14 10 7 7 7 7 7 8 8 8 8 9 9 8 8 7 6 6 6 5 5 5 5 5 4 4
13 10 8 8 9 9 9 12 25 24 25 24 23 13 11 17 17 16 16 16 13 8 8 8 8 7 8 8 8 8 8 9 8 7 6 6 6 6 6 5 5 4 5
10 10 7 8 8 8 7 5 7 13 23 24 24 22 20 15 15 15 18 19 14 9 9 8 8 7 7 7 7 7 7 7 7 7 6 6 6 5 6 5 5 5 4
11 12 8 8 7 8 6 6 6 7 7 8 17 17 19 19 18 12 9 8 9 11 8 8 7 6 6 7 6 6 6 6 6 6 6 6 6 5 5 5 6 6 6
8 7 7 7 7 7 6 6 6 7 7 6 5 8 9 12 16 17 15 8 8 8 7 8 7 7 7 6 6 6 6 6 6 5 5 5 5 5 5 5 5 4 7
8 10 8 6 5 6 6 6 6 6 6 7 7 7 5 5 7 8 9 8 8 8 7 7 7 7 6 6 5 5 5 5 5 5 5 5 5 5 5 5 5 6 6
5 6 7 6 6 6 6 6 6 5 6 7 8 8 10 7 7 8 8 8 8 7 7 7 6 6 5 5 5 5 6 6 5 5 5 5 5 5 6 5 5 5 6
6 6 6 6 6 6 6 6 6 6 6 6 6 7 8 7 7 7 7 7 7 7 6 6 5 6 6 6 6 5 5 5 5 6 6 5 5 5 5 6 5 6 6
5 5 5 5 5 5 5 5 5 5 6 6 5 5 6 6 6 6 6 5 5 5 6 5 5 4 4 4 5 5 5 5 5 5 7 6 6 6 6 6 6 6 6
6 5 5 6 5 5 5 5 5 6 5 5 5 5 5 5 5 5 5 5 5 5 4 4 4 6 5 5 4 4 4 5 5 6 7 6 7 7 7 7 7 7 6
6 5 5 5 4 4 3 4 4 4 4 4 4 4 4 4 4 4 4 4 4 3 3 3 4 4 4 5 5 5 5 6 6 7 7 8 7 8 6 6 7 7 7
6 5 5 4 4 4 4 4 4 4 4 4 3 3 3 3 3 4 3 3 3 2 3 2 3 5 5 4 5 6 6 7 8 9 7 7 6 6 6 7 8 7 8
Wind_Direction
161 165 164 155 156 149 154 146 138 147 156 158 165 166 167 171 175 177 192 194 196 203 210 219 217 210 210 210 213 226 264 269 255 269 270 270 233 240 254 250 240 241 238
158 162 166 158 166 158 165 160 151 149 160 160 167 168 170 176 178 189 194 197 194 211 223 202 213 199 204 188 175 207 234 245 242 253 260 256 245 242 241 249 245 245 245
171 160 166 166 176 171 170 163 167 160 163 160 160 170 176 182 183 190 201 201 216 220 220 214 216 205 211 217 218 235 245 243 236 239 250 250 251 253 259 251 248 249 250
172 160 166 168 177 181 180 178 174 172 170 173 177 180 183 185 187 187 197 207 215 223 219 220 220 216 219 228 230 232 234 243 244 233 238 247 247 256 259 265 259 252 260
174 159 162 166 175 170 176 181 174 179 185 190 184 188 188 185 191 195 201 202 205 219 219 224 228 225 221 227 227 229 232 234 241 244 245 249 254 256 254 263 268 268 264
122 108 153 163 170 169 173 179 171 179 184 183 200 199 195 158 7 349 230 206 214 220 225 225 225 220 232 235 240 250 259 260 258 252 254 245 243 246 256 261 263 263 267
70 58 55 61 63 47 45 77 174 172 173 170 188 193 63 49 14 11 4 254 228 231 234 239 244 260 319 267 242 250 269 39 50 274 274 283 333 24 337 311 3 91 305
67 60 55 59 61 59 63 63 56 55 65 65 62 71 70 39 10 4 354 254 294 59 44 26 24 24 23 344 331 75 62 45 46 59 69 55 48 3 305 295 325 353 87
57 57 49 58 60 59 62 62 68 75 66 63 65 67 61 35 14 6 10 91 84 72 57 41 37 31 357 326 244 112 102 85 69 72 69 74 55 36 26 14 358 9 151
57 54 56 57 60 57 65 68 72 76 78 72 68 56 54 46 31 32 55 88 88 81 63 54 45 42 34 25 75 124 106 89 94 48 80 33 43 45 39 36 18 88 79
61 55 57 63 63 55 62 66 72 77 80 76 73 62 56 45 43 53 62 76 86 84 72 59 49 55 56 59 66 70 83 96 76 78 63 60 47 48 43 39 33 35 64
65 50 55 56 55 61 65 69 74 75 76 75 77 75 63 56 50 57 64 72 88 88 82 73 68 66 65 66 69 77 81 82 82 79 68 56 49 45 45 46 47 52 54
63 57 54 60 55 49 55 63 64 70 74 74 73 74 71 70 70 65 65 69 71 81 82 85 79 73 70 63 59 55 54 56 62 67 64 59 52 43 42 77 78 82 69
60 63 65 61 55 54 59 44 48 57 59 63 72 73 70 63 61 61 69 87 94 91 94 83 86 83 74 65 60 57 57 49 49 52 50 44 37 33 33 17 15 3 6
64 64 59 59 71 62 52 47 58 52 49 66 60 57 65 62 55 53 60 76 83 84 96 80 65 59 60 60 60 50 41 43 44 38 32 26 25 24 31 18 12 10 20
60 61 62 63 63 73 73 67 53 57 57 56 54 62 65 64 64 67 72 74 69 65 75 73 67 58 55 53 50 49 41 36 29 28 29 23 22 25 12 19 14 13 8
59 60 64 62 66 63 56 74 93 79 64 50 56 54 53 59 63 67 71 68 59 77 72 68 63 54 51 50 50 47 46 34 25 34 30 25 12 21 8 17 8 1 4
64 54 58 58 59 64 63 56 54 61 59 59 53 49 53 53 53 51 46 74 67 60 62 65 62 57 50 49 45 41 40 34 33 25 28 23 6 12 10 8 19 356 344
52 57 63 66 60 66 68 68 67 68 65 61 71 71 50 58 56 53 52 57 65 64 60 62 55 53 50 48 47 48 39 38 19 18 25 12 8 2 7 359 352 358 311
63 47 52 64 67 67 61 61 62 66 68 63 52 28 30 51 54 55 53 54 58 56 55 57 53 47 40 40 44 20 31 27 19 12 10 13 358 349 351 346 351 334 342
49 60 45 56 53 51 55 57 61 66 68 69 65 39 26 55 58 55 55 51 49 48 43 45 48 39 40 37 26 31 24 15 16 2 4 357 347 338 343 336 330 328 328
34 39 43 45 46 45 52 55 57 62 65 69 73 70 40 55 58 57 56 51 46 44 37 34 42 41 30 22 16 17 28 14 9 0 355 339 336 338 333 327 326 330 320
39 44 53 59 65 72 66 62 64 66 65 60 56 53 47 49 46 50 51 39 40 38 29 18 37 34 42 34 15 11 8 16 3 2 342 337 334 345 328 328 326 316 328
36 45 55 56 39 53 55 64 82 58 42 48 48 49 46 46 45 51 34 25 13 23 24 32 39 20 15 353 3 357 29 8 346 350 344 335 328 340 331 322 313 317 297
34 43 44 42 40 52 62 50 47 41 39 28 34 33 34 32 35 21 23 26 16 5 31 352 358 352 6 330 334 327 29 353 344 334 326 321 318 316 303 310 310 306 299
29 28 29 29 36 32 30 33 30 22 14 16 11 11 3 10 9 355 6 359 351 334 317 336 338 332 330 305 29 15 336 330 326 332 317 304 308 310 313 311 301 301 299